Home   Weather   Warburg   Past weeks

Flag for Germany Past Weather in Warburg, North Rhine-Westphalia, Germany — Yesterday and Last 2 Weeks

Now
63 °F

Scattered clouds.


Feels Like: 63 °F
Forecast: 53 / 67 °F
Wind: 5 mph from East

Location: Kassel / Calden

Current Time: Sep 27, 2016 at 12:31:27 PM

Latest Report: Sep 27, 2016 at 11:50 AM


Visibility: N/A

Pressure: 30.30 "Hg

Humidity: 83%

Dew Point: 57 °F

Location of WarburgLocation

Past Weather in Warburg — Graph

°F

Warburg Temperature Yesterday

Maximum temperature yesterday: 64 °F (at 1:20 PM)
Minimum temperature yesterday: 55 °F (at 7:20 AM)
Average temperature yesterday: 61 °F

High & Low Weather Summary for the Past Weeks

 TemperatureHumidityPressure
High88 °F (Sep 12, 3:50 PM)100% (Sep 16, 7:20 AM)30.30 "Hg (Sep 16, 7:20 AM)
Low43 °F (Sep 21, 7:20 AM)33% (Sep 13, 3:20 PM)29.86 "Hg (Sep 15, 3:50 PM)
Average65 °F67%30.08 "Hg
* Reported Sep 12 11:20 AM — Sep 27 11:20 AM, Warburg, Weather by CustomWeather, © 2016

Note: Actual official high and low records may vary slightly from our data, if they occured in-between our weather recording intervals... More about our weather records

Advertising

Warburg Weather History for the Previous 24 Hours

Scroll right to see more
 ConditionsComfort  
Time TempWeatherWind HumidityBarometerVisibility
11:20 AM
Tue, Sep 27
63 °FScattered clouds.3 mph83%30.30 "HgN/A
10:50 AM61 °FScattered clouds.1 mph83%30.30 "HgN/A
10:20 AM57 °FScattered clouds.3 mph100%30.30 "HgN/A
9:50 AM55 °FScattered clouds.6 mph100%30.30 "HgN/A
9:20 AM55 °FBroken clouds.1 mph100%30.30 "HgN/A
8:50 AM55 °FLight rain. Partly sunny.3 mph100%30.30 "HgN/A
8:20 AM54 °FLight rain. Partly sunny.2 mph100%30.30 "HgN/A
7:50 AM55 °FPartly sunny.N/A100%30.27 "HgN/A
6:50 AM54 °FLight rain. Overcast.3 mph100%30.27 "HgN/A
6:20 AM55 °FOvercast.1 mph100%30.27 "HgN/A
5:50 AM55 °FPassing clouds.2 mph100%30.24 "HgN/A
7:50 PM
Mon, Sep 26
61 °FPassing clouds.3 mph77%30.21 "HgN/A
7:20 PM61 °FPassing clouds.6 mph77%30.21 "HgN/A
6:50 PM63 °FBroken clouds.6 mph73%30.21 "HgN/A
6:20 PM63 °FBroken clouds.6 mph73%30.21 "HgN/A
5:50 PM63 °FBroken clouds.7 mph73%30.21 "HgN/A
5:20 PM63 °FBroken clouds.7 mph73%30.21 "HgN/A
4:50 PM64 °FScattered clouds.8 mph68%30.21 "HgN/A
4:20 PM63 °FMore clouds than sun.6 mph73%30.21 "HgN/A
3:50 PM64 °FMore clouds than sun.6 mph68%30.21 "HgN/A
3:20 PM64 °FMore clouds than sun.5 mph68%30.21 "HgN/A
2:50 PM64 °FBroken clouds.6 mph68%30.21 "HgN/A
2:20 PM63 °FBroken clouds.6 mph68%30.21 "HgN/A
1:50 PM64 °FBroken clouds.7 mph64%30.21 "HgN/A
1:20 PM64 °FBroken clouds.7 mph68%30.21 "HgN/A
12:50 PM63 °FBroken clouds.5 mph73%30.21 "HgN/A
12:20 PM63 °FBroken clouds.5 mph73%30.21 "HgN/A
Weather by CustomWeather, © 2016

See weather overviewHow to use our weather pages